When you browse on this site, cookies collect data to enhance your experience and personalize the content and advertising you see.
Visit our Privacy Policy to learn more. By continuing to use the site, you agree to this use of cookies and data.
  • In Deutschland
  • Länderverzeichnis
  • Für 7 Tage
  • Wassertemperatur
  • Wetterkarte
  • Widgets
  • user-avatar
    Anmelden

    Stündliche Wetter Giumri

    Heute, 25 August, Sonntag

    Zeit Temperatur Niederschläge Wind Luftdruck Luftfeuchtigkeit
    00:00 +18°C° 0.2 mm 1 m/S 636 mmHg 78%
    01:00 +18°C° 0.1 mm 1 m/S 636 mmHg 78%
    02:00 +16°C° 0.1 mm 1 m/S 636 mmHg 78%
    03:00 +16°C° 0 mm 2 m/S 636 mmHg 78%
    04:00 +16°C° 0.2 mm 1 m/S 636 mmHg 77%
    05:00 +16°C° 0.2 mm 1 m/S 636 mmHg 77%
    06:00 +16°C° 0.2 mm 1 m/S 636 mmHg 76%
    07:00 +19°C° 0.1 mm 1 m/S 637 mmHg 68%
    08:00 +21°C° 0.1 mm 1 m/S 638 mmHg 61%
    09:00 +24°C° 0 mm 1 m/S 638 mmHg 52%
    10:00 +25°C° 0.3 mm 1 m/S 638 mmHg 47%
    11:00 +27°C° 0.3 mm 1 m/S 638 mmHg 42%
    12:00 +28°C° 0.3 mm 1 m/S 638 mmHg 38%
    13:00 +28°C° 0.3 mm 2 m/S 638 mmHg 39%
    14:00 +27°C° 0.3 mm 3 m/S 638 mmHg 40%
    15:00 +28°C° 0 mm 3 m/S 638 mmHg 39%
    16:00 +26°C° 0.1 mm 3 m/S 638 mmHg 44%
    17:00 +25°C° 0.1 mm 4 m/S 637 mmHg 50%
    18:00 +23°C° 0.1 mm 4 m/S 637 mmHg 55%
    19:00 +21°C° 0 mm 3 m/S 637 mmHg 61%
    20:00 +20°C° 0 mm 3 m/S 637 mmHg 67%
    21:00 +18°C° 0 mm 3 m/S 637 mmHg 72%
    22:00 +18°C° 0 mm 2 m/S 637 mmHg 71%
    23:00 +17°C° 0 mm 2 m/S 637 mmHg 70%

    Morgen, 26 August, Montag

    Zeit Temperatur Niederschläge Wind Luftdruck Luftfeuchtigkeit
    00:00 +17°C° 0 mm 2 m/S 636 mmHg 70%
    01:00 +17°C° 0 mm 2 m/S 636 mmHg 71%
    02:00 +16°C° 0 mm 2 m/S 636 mmHg 72%
    03:00 +16°C° 0 mm 2 m/S 636 mmHg 72%
    04:00 +16°C° 0 mm 2 m/S 636 mmHg 74%
    05:00 +15°C° 0 mm 2 m/S 636 mmHg 75%
    06:00 +15°C° 0 mm 2 m/S 636 mmHg 76%
    07:00 +18°C° 0 mm 2 m/S 637 mmHg 68%
    08:00 +20°C° 0 mm 2 m/S 637 mmHg 60%
    09:00 +23°C° 0 mm 2 m/S 638 mmHg 53%
    10:00 +25°C° 0.1 mm 2 m/S 638 mmHg 49%
    11:00 +26°C° 0.1 mm 2 m/S 638 mmHg 44%
    12:00 +28°C° 0.1 mm 2 m/S 638 mmHg 40%
    13:00 +28°C° 0.2 mm 3 m/S 638 mmHg 40%
    14:00 +28°C° 0.2 mm 3 m/S 638 mmHg 41%
    15:00 +28°C° 0.2 mm 3 m/S 637 mmHg 41%
    16:00 +26°C° 0.6 mm 3 m/S 637 mmHg 49%
    17:00 +24°C° 0.6 mm 3 m/S 636 mmHg 58%
    18:00 +21°C° 0.6 mm 3 m/S 636 mmHg 66%
    19:00 +20°C° 0.3 mm 3 m/S 636 mmHg 68%
    20:00 +19°C° 0.3 mm 3 m/S 637 mmHg 69%
    21:00 +19°C° 0.3 mm 3 m/S 637 mmHg 70%
    22:00 +18°C° 0.1 mm 2 m/S 637 mmHg 72%
    23:00 +17°C° 0.1 mm 2 m/S 636 mmHg 74%

    übermorgen, 27 August, Dienstag

    Zeit Temperatur Niederschläge Wind Luftdruck Luftfeuchtigkeit
    00:00 +16°C° 0.1 mm 2 m/S 636 mmHg 76%
    01:00 +16°C° 0.1 mm 2 m/S 636 mmHg 76%
    02:00 +15°C° 0.1 mm 2 m/S 636 mmHg 76%
    03:00 +15°C° 0.1 mm 2 m/S 636 mmHg 75%
    04:00 +15°C° 0 mm 2 m/S 636 mmHg 74%
    05:00 +14°C° 0 mm 2 m/S 636 mmHg 74%
    06:00 +14°C° 0 mm 2 m/S 635 mmHg 73%
    07:00 +16°C° 0 mm 2 m/S 636 mmHg 66%
    08:00 +19°C° 0 mm 2 m/S 636 mmHg 60%
    09:00 +21°C° 0 mm 2 m/S 637 mmHg 53%
    10:00 +23°C° 0 mm 2 m/S 637 mmHg 50%
    11:00 +24°C° 0 mm 2 m/S 637 mmHg 47%
    12:00 +26°C° 0 mm 3 m/S 637 mmHg 44%
    13:00 +26°C° 0 mm 3 m/S 637 mmHg 42%
    14:00 +27°C° 0 mm 3 m/S 637 mmHg 39%
    15:00 +28°C° 0 mm 3 m/S 637 mmHg 37%
    16:00 +26°C° 0.1 mm 3 m/S 636 mmHg 43%
    17:00 +23°C° 0.1 mm 4 m/S 636 mmHg 50%
    18:00 +22°C° 0.1 mm 5 m/S 635 mmHg 56%
    19:00 +20°C° 0 mm 4 m/S 635 mmHg 59%
    20:00 +19°C° 0 mm 3 m/S 635 mmHg 63%
    21:00 +17°C° 0 mm 2 m/S 635 mmHg 66%
    22:00 +17°C° 0 mm 3 m/S 635 mmHg 66%
    23:00 +16°C° 0 mm 3 m/S 635 mmHg 67%

    28 August, Mittwoch

    Zeit Temperatur Niederschläge Wind Luftdruck Luftfeuchtigkeit
    00:00 +16°C° 0 mm 3 m/S 635 mmHg 68%
    01:00 +15°C° 0 mm 2 m/S 635 mmHg 68%
    02:00 +15°C° 0 mm 2 m/S 635 mmHg 69%
    03:00 +15°C° 0 mm 2 m/S 635 mmHg 70%
    04:00 +15°C° 0 mm 2 m/S 635 mmHg 70%
    05:00 +14°C° 0 mm 2 m/S 635 mmHg 71%
    06:00 +14°C° 0 mm 2 m/S 635 mmHg 72%
    07:00 +17°C° 0 mm 2 m/S 636 mmHg 64%
    08:00 +19°C° 0 mm 2 m/S 636 mmHg 57%
    09:00 +21°C° 0 mm 2 m/S 637 mmHg 49%
    10:00 +24°C° 0.1 mm 2 m/S 637 mmHg 45%
    11:00 +25°C° 0.1 mm 2 m/S 637 mmHg 41%
    12:00 +27°C° 0.1 mm 2 m/S 637 mmHg 37%
    13:00 +27°C° 0.1 mm 2 m/S 637 mmHg 36%
    14:00 +28°C° 0.1 mm 2 m/S 637 mmHg 36%
    15:00 +28°C° 0.1 mm 3 m/S 637 mmHg 35%
    16:00 +27°C° 0.1 mm 3 m/S 637 mmHg 40%
    17:00 +26°C° 0.1 mm 4 m/S 636 mmHg 45%
    18:00 +25°C° 0.1 mm 4 m/S 636 mmHg 50%
    19:00 +22°C° 0 mm 3 m/S 636 mmHg 55%
    20:00 +20°C° 0 mm 3 m/S 636 mmHg 60%
    21:00 +19°C° 0 mm 3 m/S 636 mmHg 65%
    22:00 +18°C° 0.1 mm 2 m/S 636 mmHg 67%
    23:00 +18°C° 0.1 mm 2 m/S 635 mmHg 69%

    29 August, Donnerstag

    Zeit Temperatur Niederschläge Wind Luftdruck Luftfeuchtigkeit
    00:00 +17°C° 0.1 mm 2 m/S 635 mmHg 71%
    01:00 +17°C° 0 mm 2 m/S 635 mmHg 71%
    02:00 +16°C° 0 mm 2 m/S 635 mmHg 72%
    03:00 +16°C° 0 mm 2 m/S 635 mmHg 73%
    04:00 +16°C° 0 mm 2 m/S 635 mmHg 74%
    05:00 +15°C° 0 mm 2 m/S 635 mmHg 75%
    06:00 +15°C° 0 mm 2 m/S 635 mmHg 76%
    07:00 +18°C° 0 mm 2 m/S 635 mmHg 68%
    08:00 +20°C° 0 mm 2 m/S 636 mmHg 59%
    09:00 +23°C° 0 mm 2 m/S 637 mmHg 51%
    10:00 +25°C° 0 mm 2 m/S 637 mmHg 46%
    11:00 +27°C° 0 mm 2 m/S 637 mmHg 40%
    12:00 +28°C° 0 mm 2 m/S 637 mmHg 34%
    13:00 +29°C° 0.1 mm 2 m/S 637 mmHg 31%
    14:00 +30°C° 0.1 mm 2 m/S 637 mmHg 29%
    15:00 +31°C° 0.1 mm 3 m/S 636 mmHg 26%
    16:00 +29°C° 0.1 mm 3 m/S 636 mmHg 36%
    17:00 +26°C° 0.1 mm 4 m/S 635 mmHg 47%
    18:00 +23°C° 0.1 mm 5 m/S 634 mmHg 57%
    19:00 +22°C° 0.3 mm 4 m/S 634 mmHg 63%
    20:00 +20°C° 0.3 mm 3 m/S 634 mmHg 69%
    21:00 +18°C° 0.3 mm 2 m/S 634 mmHg 75%
    22:00 +18°C° 0.1 mm 2 m/S 634 mmHg 76%
    23:00 +18°C° 0.1 mm 2 m/S 634 mmHg 78%

    30 August, Freitag

    Zeit Temperatur Niederschläge Wind Luftdruck Luftfeuchtigkeit
    00:00 +17°C° 0.1 mm 3 m/S 634 mmHg 79%
    01:00 +17°C° 0.1 mm 3 m/S 634 mmHg 80%
    02:00 +16°C° 0.1 mm 2 m/S 634 mmHg 82%
    03:00 +16°C° 0.1 mm 2 m/S 634 mmHg 83%
    04:00 +15°C° 0.1 mm 2 m/S 634 mmHg 84%
    05:00 +15°C° 0.1 mm 2 m/S 634 mmHg 85%
    06:00 +15°C° 0.1 mm 2 m/S 634 mmHg 85%
    07:00 +16°C° 0.1 mm 2 m/S 634 mmHg 78%
    08:00 +18°C° 0.1 mm 2 m/S 634 mmHg 71%
    09:00 +20°C° 0.1 mm 3 m/S 635 mmHg 63%
    10:00 +22°C° 0.2 mm 3 m/S 635 mmHg 58%
    11:00 +24°C° 0.2 mm 3 m/S 635 mmHg 53%
    12:00 +26°C° 0.2 mm 3 m/S 635 mmHg 48%
    13:00 +25°C° 0.9 mm 3 m/S 635 mmHg 51%
    14:00 +25°C° 0.9 mm 3 m/S 634 mmHg 54%
    15:00 +24°C° 0.9 mm 3 m/S 633 mmHg 57%
    16:00 +22°C° 1.2 mm 3 m/S 633 mmHg 64%
    17:00 +20°C° 1.2 mm 4 m/S 633 mmHg 71%
    18:00 +18°C° 1.2 mm 4 m/S 632 mmHg 78%
    19:00 +18°C° 0.4 mm 4 m/S 632 mmHg 80%
    20:00 +17°C° 0.4 mm 4 m/S 633 mmHg 83%
    21:00 +16°C° 0.4 mm 3 m/S 633 mmHg 85%
    22:00 +16°C° 0.1 mm 3 m/S 633 mmHg 85%
    23:00 +16°C° 0.1 mm 3 m/S 633 mmHg 86%
    Mehr zeigen